Wind_Speed
26 23 19 18 20 18 18 17 18 18 17 22 26 29 30 32 35 37 40 44 46 48 50 51 51 53 56 58 59 61 64 66 67 66 66 69 71 72 72 71 74 77 76 72
28 24 22 23 21 19 20 20 22 23 23 27 28 31 31 34 38 42 44 47 50 53 53 54 55 57 58 59 61 65 68 70 69 67 71 71 72 72 73 71 70 69 69 69
30 26 25 24 24 24 25 28 28 29 28 29 32 34 36 37 40 44 46 49 51 54 55 56 56 57 59 62 64 68 70 70 70 70 72 75 75 72 66 59 59 62 68 71
33 33 30 31 32 31 33 33 33 35 37 37 36 40 43 46 48 49 49 51 52 53 55 57 60 61 62 64 68 69 67 68 69 72 73 76 71 55 53 59 63 66 68 72
37 36 37 40 36 37 38 35 37 40 44 45 45 43 47 49 50 51 52 53 54 57 59 60 60 61 63 65 64 64 65 66 70 76 75 68 51 47 58 61 66 68 73 78
42 41 44 45 43 42 44 44 45 46 48 50 51 48 48 52 54 54 54 55 58 60 63 62 62 64 63 63 62 64 65 66 70 66 64 50 48 62 62 67 69 69 68 71
47 46 50 49 49 49 52 52 51 52 53 54 56 54 55 56 58 59 58 59 62 63 64 67 67 66 65 64 62 64 69 62 51 60 64 56 62 62 65 64 62 64 73 78
54 53 54 54 55 55 56 57 56 54 57 59 60 59 61 62 62 61 62 63 65 67 68 69 70 69 69 67 64 65 52 75 71 66 62 67 68 60 60 59 68 74 79 77
61 61 60 59 59 57 57 58 61 60 62 63 63 64 66 66 64 64 65 66 67 68 69 70 70 70 70 71 71 71 72 75 71 65 61 62 64 65 62 66 69 76 79 70
62 62 62 61 62 61 60 62 63 63 63 68 67 66 68 68 66 68 69 69 67 68 69 70 71 72 71 71 74 75 78 75 60 56 57 55 59 62 62 67 71 77 72 64
63 63 67 65 64 63 63 63 67 67 67 68 68 68 70 72 69 69 68 68 67 67 70 72 74 76 78 77 80 80 69 42 48 46 58 61 59 65 65 66 74 73 64 57
69 69 70 70 68 67 67 68 69 70 71 69 70 69 72 70 67 66 68 69 70 70 73 76 78 81 83 82 78 66 54 51 57 53 57 56 63 65 62 67 78 70 60 56
72 71 73 72 72 73 74 73 72 71 69 69 70 69 68 67 67 69 70 71 74 77 81 84 84 83 79 68 57 53 49 50 46 49 57 62 67 69 71 76 71 61 61 49
74 72 72 71 73 72 71 71 70 70 70 68 67 68 68 68 70 72 74 77 79 82 82 77 70 64 60 58 49 50 51 50 46 49 58 63 62 65 65 65 64 61 55 25
71 72 71 71 72 72 72 71 69 70 69 67 68 70 71 74 76 76 76 76 69 67 65 62 61 60 55 54 49 48 46 47 52 51 58 61 68 57 56 65 56 55 34 8
73 73 72 73 73 74 74 72 70 71 71 72 72 74 75 76 68 60 59 61 61 57 57 58 55 50 43 44 44 49 50 51 53 59 61 62 69 73 54 62 39 28 8 24
66 68 69 68 67 69 69 70 70 70 68 66 65 62 57 53 55 50 48 51 52 51 52 53 54 45 40 34 30 46 46 55 57 61 56 59 57 45 59 43 21 6 18 20
56 54 53 52 52 51 48 48 50 50 50 52 51 47 44 47 47 43 44 46 45 46 48 49 51 47 40 37 33 37 44 50 57 59 55 52 53 58 45 27 19 8 18 16
50 51 51 49 49 48 47 49 50 50 50 48 46 44 45 45 40 38 39 41 44 44 48 48 46 46 41 33 32 38 40 44 46 49 48 50 56 57 36 26 18 17 19 15
52 53 52 51 48 48 49 51 52 51 49 47 43 41 41 41 39 39 40 41 42 46 47 46 46 45 40 24 32 38 37 38 39 41 47 53 52 52 30 24 15 23 21 17
54 51 50 49 46 43 43 47 46 47 44 44 42 41 42 41 41 41 41 42 44 47 44 45 45 42 40 31 37 35 36 36 36 38 45 43 33 36 27 22 17 24 24 21
55 52 51 50 49 46 47 49 49 48 48 48 47 45 44 43 42 42 43 45 47 48 46 45 42 39 38 33 31 27 27 27 31 30 28 24 35 28 26 22 21 20 31 24
57 56 54 53 52 51 49 53 53 53 51 49 49 48 47 45 45 44 44 46 48 50 49 44 39 36 36 37 36 35 38 42 40 32 27 31 31 25 24 20 21 18 26 24
63 62 58 56 54 54 53 53 56 56 54 52 52 50 49 48 48 48 48 49 51 52 51 42 33 37 39 34 39 37 37 39 41 39 27 35 27 25 22 20 18 18 28 28
68 65 62 57 54 54 56 57 57 56 55 55 54 55 53 51 49 49 51 53 55 53 48 36 31 33 35 38 40 41 40 44 42 47 46 34 25 25 21 21 20 20 22 30
68 66 65 61 59 57 57 59 59 58 58 58 58 58 56 52 48 51 53 54 55 53 38 34 36 37 38 40 39 39 41 45 46 45 47 37 29 23 22 22 23 24 25 30
Wind_Direction
242 239 237 248 242 243 250 251 252 256 252 258 261 265 271 277 281 284 287 291 294 293 291 292 296 298 300 299 298 298 301 302 302 300 299 300 301 302 303 301 298 296 297 298
237 237 244 245 247 252 257 264 267 268 270 271 273 277 280 287 292 293 293 292 292 293 297 301 299 299 298 298 298 300 300 300 301 304 305 305 306 307 306 303 298 296 295 294
242 241 246 248 247 249 259 268 276 279 279 282 286 288 292 296 298 298 295 292 291 294 297 295 295 293 293 297 296 296 297 300 305 308 307 307 309 309 304 297 291 288 289 291
241 241 249 255 255 259 263 269 277 279 279 281 285 288 292 296 297 295 294 291 291 291 290 290 292 294 294 292 292 295 299 303 306 305 306 307 307 306 295 289 287 286 289 292
244 249 254 258 262 266 270 275 280 282 284 283 281 286 292 294 292 290 291 290 290 289 289 290 291 291 290 292 294 297 299 303 304 306 307 306 302 290 287 286 287 290 294 295
247 251 255 259 265 270 274 277 280 284 282 283 284 290 293 290 289 291 290 289 289 289 289 290 291 292 291 293 295 297 300 303 306 308 307 299 290 288 287 292 291 297 306 310
254 257 261 263 265 269 274 278 279 279 279 283 287 288 287 289 289 289 289 289 289 290 292 292 293 293 294 295 297 299 302 299 306 290 292 286 282 288 304 300 299 308 319 321
257 257 260 263 266 269 272 275 277 277 280 282 283 286 287 288 289 289 289 290 291 292 292 292 293 294 295 296 299 298 287 294 301 296 285 280 280 282 303 307 314 319 317 318
256 258 259 264 267 269 271 273 274 277 281 282 284 286 288 287 288 289 289 289 289 290 290 291 291 292 295 297 298 298 297 298 298 290 284 278 278 293 307 314 317 318 318 318
259 263 263 265 268 270 272 273 276 279 281 282 285 286 284 284 287 288 289 289 289 288 288 290 292 292 293 294 295 295 298 299 290 284 279 282 290 304 312 320 319 320 323 322
259 261 264 266 267 268 270 272 278 279 280 282 283 282 282 285 287 286 286 287 287 287 288 289 291 293 294 294 295 296 297 285 280 281 286 292 298 302 309 317 320 326 323 320
260 263 266 268 268 269 271 273 273 276 279 280 279 280 282 285 286 286 286 287 288 288 288 290 291 291 292 294 294 291 285 266 274 281 291 292 291 302 314 321 321 323 319 319
260 261 263 265 267 268 270 274 276 277 276 277 278 279 281 285 285 285 287 288 288 290 291 292 292 292 292 293 290 282 273 271 272 281 282 288 292 300 308 312 318 319 317 322
261 261 262 264 264 267 268 268 270 273 274 276 279 281 283 284 283 284 287 290 290 290 291 292 293 293 292 292 288 280 267 272 279 279 282 285 296 300 317 320 321 321 318 321
260 260 261 263 267 268 270 272 274 275 278 279 279 279 280 282 286 288 287 287 289 289 290 291 289 288 287 283 280 280 265 266 271 276 282 290 293 307 322 328 325 320 326 170
258 261 262 264 266 268 271 273 273 273 274 276 277 279 281 283 286 285 285 286 288 290 291 291 292 292 285 281 282 275 265 265 270 278 286 290 294 301 316 324 324 342 44 144
256 259 262 264 265 267 269 271 272 273 275 277 278 279 281 283 285 286 285 288 293 296 298 298 299 300 293 289 265 276 270 262 268 279 288 294 301 312 323 320 320 354 145 149
255 257 260 263 266 268 268 269 270 272 274 276 278 279 276 278 284 286 290 294 297 301 302 302 301 303 302 294 278 275 270 268 268 275 290 295 301 314 322 318 315 191 171 169
257 259 260 262 263 266 266 264 266 268 270 272 273 274 276 282 289 294 297 299 299 301 304 303 304 302 302 297 278 272 278 276 283 285 289 294 305 310 314 316 302 197 195 188
258 261 263 264 265 263 263 263 265 267 267 271 273 277 280 281 286 292 296 297 301 307 303 298 298 299 301 289 263 281 284 283 282 283 290 295 303 308 309 313 296 212 216 207
258 263 265 267 268 265 265 266 266 267 268 268 271 277 279 282 285 290 294 297 302 306 305 299 291 294 296 273 276 285 290 290 293 292 294 305 307 309 303 306 293 225 216 218
259 264 266 266 268 270 270 269 269 268 269 270 273 277 280 284 287 288 294 297 301 306 304 299 289 292 288 284 271 279 289 294 299 294 310 308 315 309 296 300 289 255 222 228
258 259 262 264 265 267 268 269 272 274 274 275 277 279 284 287 288 290 296 300 303 305 303 292 283 285 287 277 274 277 281 285 294 304 309 324 317 305 287 295 287 250 227 230
256 257 260 261 263 264 266 267 269 272 275 279 280 283 284 286 289 295 298 300 302 304 301 283 276 278 278 274 274 273 282 289 290 301 321 324 321 295 278 286 281 246 233 239
254 257 261 262 262 263 264 266 268 270 273 275 279 281 283 286 288 292 295 299 302 303 301 279 271 270 282 283 277 273 275 281 288 293 304 322 311 287 272 275 271 250 244 242
254 257 262 262 263 264 266 265 265 267 271 274 277 278 279 282 285 288 293 296 302 307 292 281 279 275 274 279 272 275 277 280 288 295 304 309 304 285 269 264 267 254 248 248
Height
10867 10869 10873 10874 10875 10877 10878 10880 10881 10883 10887 10887 10888 10888 10888 10885 10882 10882 10879 10874 10869 10862 10860 10859 10854 10848 10845 10841 10837 10831 10828 10825 10821 10816 10809 10800 10794 10787 10779 10771 10761 10753 10745 10738
10862 10866 10868 10868 10871 10872 10872 10873 10874 10877 10879 10879 10880 10880 10880 10879 10876 10873 10871 10865 10859 10851 10848 10845 10840 10836 10832 10829 10823 10819 10814 10809 10804 10799 10789 10781 10776 10769 10760 10751 10741 10735 10729 10722
10858 10861 10862 10864 10865 10867 10868 10867 10868 10869 10871 10871 10870 10869 10870 10871 10869 10866 10862 10858 10850 10844 10841 10835 10832 10828 10823 10819 10814 10808 10802 10793 10787 10780 10772 10765 10760 10752 10743 10735 10728 10721 10714 10707
10851 10854 10856 10856 10858 10861 10860 10863 10863 10861 10862 10864 10864 10863 10863 10861 10858 10854 10852 10848 10844 10840 10835 10829 10824 10820 10816 10811 10806 10799 10792 10783 10775 10768 10761 10754 10746 10739 10731 10722 10714 10707 10703 10695
10845 10847 10848 10846 10851 10851 10851 10855 10855 10853 10851 10852 10854 10858 10854 10853 10849 10843 10840 10836 10833 10829 10825 10821 10816 10813 10809 10804 10796 10788 10780 10775 10767 10757 10751 10743 10735 10728 10718 10711 10703 10698 10691 10681
10836 10839 10837 10838 10841 10843 10842 10845 10846 10845 10841 10839 10840 10846 10846 10839 10834 10832 10830 10826 10820 10816 10810 10809 10806 10802 10798 10792 10785 10778 10772 10765 10757 10745 10740 10734 10726 10716 10709 10702 10695 10689 10676 10663
10827 10830 10827 10828 10829 10832 10832 10833 10835 10834 10830 10831 10829 10831 10830 10827 10823 10818 10816 10812 10806 10802 10798 10792 10789 10786 10782 10779 10773 10764 10756 10751 10749 10739 10730 10724 10714 10707 10701 10692 10685 10673 10658 10646
10814 10818 10815 10818 10818 10821 10822 10821 10822 10822 10819 10819 10819 10819 10814 10811 10810 10807 10803 10798 10792 10788 10783 10777 10772 10768 10765 10762 10760 10753 10752 10742 10734 10725 10720 10712 10703 10698 10690 10680 10669 10657 10646 10634
10798 10801 10806 10806 10807 10810 10810 10810 10807 10810 10808 10804 10804 10805 10801 10796 10795 10792 10788 10784 10780 10775 10770 10764 10759 10756 10752 10746 10741 10738 10732 10727 10720 10712 10705 10697 10692 10687 10676 10667 10657 10645 10632 10620
10787 10786 10791 10794 10795 10797 10799 10797 10795 10795 10795 10789 10791 10789 10783 10782 10784 10779 10773 10769 10766 10761 10755 10750 10745 10741 10739 10736 10729 10723 10716 10708 10702 10698 10692 10686 10681 10673 10664 10656 10646 10633 10619 10608
10774 10775 10772 10778 10782 10783 10785 10785 10782 10781 10781 10777 10776 10774 10767 10766 10771 10765 10761 10757 10754 10749 10741 10736 10733 10727 10720 10717 10710 10705 10699 10690 10686 10683 10678 10672 10667 10660 10654 10646 10635 10620 10608 10600
10759 10762 10759 10761 10765 10768 10770 10769 10768 10766 10767 10765 10760 10761 10754 10754 10753 10749 10745 10741 10739 10735 10729 10724 10719 10712 10705 10700 10692 10686 10683 10679 10676 10671 10665 10661 10656 10651 10643 10634 10624 10610 10600 10593
10742 10747 10743 10748 10749 10749 10751 10754 10753 10754 10753 10751 10747 10744 10744 10741 10738 10733 10730 10726 10721 10716 10712 10705 10699 10692 10686 10683 10677 10671 10668 10666 10663 10661 10657 10653 10647 10640 10633 10625 10614 10598 10588 10581
10724 10729 10731 10730 10732 10734 10736 10736 10737 10738 10737 10738 10735 10733 10731 10727 10721 10717 10716 10710 10706 10700 10695 10688 10681 10674 10667 10664 10662 10658 10656 10655 10653 10652 10648 10643 10637 10630 10627 10616 10602 10586 10574 10568
10704 10709 10714 10715 10716 10718 10719 10721 10724 10722 10722 10722 10717 10716 10714 10710 10709 10706 10700 10694 10689 10683 10680 10674 10668 10662 10658 10653 10649 10645 10645 10644 10642 10642 10638 10634 10629 10624 10618 10608 10594 10577 10563 10561
10692 10695 10698 10700 10703 10703 10702 10707 10708 10705 10705 10704 10703 10700 10697 10694 10697 10691 10685 10680 10675 10670 10665 10659 10654 10651 10647 10642 10639 10635 10634 10633 10633 10631 10629 10626 10621 10615 10611 10602 10591 10576 10566 10568
10678 10681 10684 10687 10688 10688 10692 10689 10690 10689 10687 10685 10684 10682 10681 10680 10680 10677 10672 10667 10662 10658 10652 10645 10639 10637 10634 10632 10632 10625 10624 10624 10623 10621 10621 10618 10613 10607 10600 10594 10588 10580 10575 10574
10664 10667 10671 10675 10677 10679 10680 10677 10675 10675 10674 10672 10671 10669 10668 10668 10668 10665 10661 10656 10651 10645 10640 10634 10628 10625 10622 10619 10619 10616 10615 10614 10613 10613 10613 10609 10604 10597 10594 10588 10584 10580 10577 10574
10652 10655 10660 10664 10666 10668 10669 10666 10665 10664 10664 10661 10661 10661 10658 10657 10656 10654 10650 10646 10641 10636 10631 10625 10621 10616 10614 10613 10610 10607 10605 10604 10606 10606 10605 10600 10597 10590 10587 10581 10579 10578 10575 10572
10642 10644 10647 10652 10655 10658 10656 10657 10652 10653 10652 10653 10651 10649 10648 10648 10647 10645 10642 10637 10631 10627 10622 10616 10613 10609 10606 10605 10600 10599 10597 10597 10599 10599 10596 10593 10590 10582 10579 10575 10573 10572 10571 10569
10629 10632 10636 10637 10641 10645 10644 10641 10643 10640 10642 10640 10641 10640 10641 10640 10638 10636 10632 10627 10622 10618 10613 10607 10602 10601 10598 10598 10595 10593 10592 10591 10591 10590 10588 10585 10581 10575 10571 10569 10567 10566 10566 10564
10618 10621 10623 10625 10629 10631 10630 10628 10628 10630 10629 10629 10631 10631 10631 10629 10628 10625 10621 10617 10612 10608 10603 10597 10592 10591 10590 10589 10588 10587 10585 10585 10584 10583 10580 10578 10571 10568 10566 10563 10560 10560 10560 10560
10604 10608 10611 10613 10615 10617 10618 10614 10614 10613 10616 10617 10618 10618 10617 10617 10614 10612 10609 10606 10602 10597 10593 10587 10583 10581 10580 10580 10580 10579 10579 10579 10577 10576 10573 10570 10564 10562 10561 10558 10555 10552 10553 10555
10586 10590 10597 10600 10604 10603 10603 10604 10602 10602 10603 10603 10603 10603 10604 10603 10601 10599 10597 10593 10590 10586 10580 10576 10574 10572 10571 10570 10570 10571 10571 10569 10568 10567 10565 10562 10559 10557 10556 10553 10551 10548 10549 10550
10569 10573 10580 10586 10590 10591 10590 10589 10590 10592 10591 10590 10592 10592 10591 10591 10589 10587 10584 10582 10579 10574 10568 10565 10565 10565 10562 10559 10560 10562 10563 10561 10560 10558 10557 10555 10553 10551 10549 10547 10546 10545 10545 10545
10552 10557 10562 10570 10573 10577 10577 10576 10577 10579 10579 10580 10581 10580 10580 10580 10578 10575 10574 10571 10567 10562 10558 10556 10555 10555 10553 10551 10551 10552 10553 10553 10553 10550 10549 10548 10545 10543 10542 10540 10540 10540 10540 10540